Time,TemperatureF,DewpointF,PressureIn,WindDirection,WindDirectionDegrees,WindSpeedMPH,WindSpeedGustMPH,Humidity,HourlyPrecipIn,Conditions,Clouds,dailyrainin,SolarRadiationWatts/m^2,SoftwareType,DateUTC
2014-02-22 00:00:00,38.8,21.3,29.87,West,270,1.0,3.0,49,0.00,,---,0.00,0.00,VWS V14.01,2014-02-22 05:00:00,
2014-02-22 00:30:00,37.3,21.8,29.87,West,270,2.0,5.0,53,0.00,,---,0.00,0.00,VWS V14.01,2014-02-22 05:30:00,
2014-02-22 01:00:00,35.9,22.2,29.87,West,270,1.0,2.0,57,0.00,,---,0.00,0.00,VWS V14.01,2014-02-22 06:00:00,
2014-02-22 01:30:00,36.6,21.5,29.86,SE,135,0.0,1.0,54,0.00,,---,0.00,0.00,VWS V14.01,2014-02-22 06:30:00,
2014-02-22 02:00:00,35.2,21.9,29.86,ESE,112,0.0,1.0,58,0.00,,---,0.00,0.00,VWS V14.01,2014-02-22 07:00:00,
2014-02-22 02:30:00,34.6,22.9,29.85,ESE,112,1.0,3.0,62,0.00,,---,0.00,0.00,VWS V14.01,2014-02-22 07:30:00,
2014-02-22 03:00:00,34.3,22.6,29.84,ESE,112,2.0,4.0,62,0.00,,---,0.00,0.00,VWS V14.01,2014-02-22 08:00:00,
2014-02-22 03:30:00,32.1,22.0,29.84,SSE,158,1.0,5.0,66,0.00,,---,0.00,0.00,VWS V14.01,2014-02-22 08:30:00,
2014-02-22 04:00:00,30.6,22.7,29.83,West,270,0.0,2.0,72,0.00,,---,0.00,0.00,VWS V14.01,2014-02-22 09:00:00,
2014-02-22 04:30:00,31.2,22.2,29.83,WNW,292,0.0,1.0,69,0.00,,---,0.00,0.00,VWS V14.01,2014-02-22 09:30:00,
2014-02-22 05:00:00,32.9,22.1,29.82,SW,225,0.0,2.0,64,0.00,,---,0.00,0.00,VWS V14.01,2014-02-22 10:00:00,
2014-02-22 05:30:00,30.7,21.8,29.82,West,270,0.0,1.0,69,0.00,,---,0.00,0.00,VWS V14.01,2014-02-22 10:30:00,
2014-02-22 06:00:00,30.1,21.9,29.82,West,270,0.0,2.0,71,0.00,,---,0.00,0.00,VWS V14.01,2014-02-22 11:00:00,
2014-02-22 06:30:00,26.7,21.1,29.83,WNW,292,2.0,4.0,79,0.00,,---,0.00,0.00,VWS V14.01,2014-02-22 11:30:00,
2014-02-22 07:00:00,26.9,21.6,29.83,NW,315,4.0,7.0,80,0.00,,---,0.00,0.00,VWS V14.01,2014-02-22 12:00:00,
2014-02-22 07:30:00,26.5,21.2,29.84,NW,315,3.0,6.0,80,0.00,,---,0.00,0.00,VWS V14.01,2014-02-22 12:30:00,
2014-02-22 08:00:00,26.4,21.1,29.85,NW,315,4.0,7.0,80,0.00,,---,0.00,0.00,VWS V14.01,2014-02-22 13:00:00,
2014-02-22 08:30:00,29.6,22.4,29.86,NNE,22,2.0,6.0,74,0.00,,---,0.00,0.00,VWS V14.01,2014-02-22 13:30:00,
2014-02-22 09:00:00,28.4,22.1,29.86,WNW,292,2.0,6.0,77,0.00,,---,0.00,0.00,VWS V14.01,2014-02-22 14:00:00,
2014-02-22 09:30:00,30.2,23.6,29.88,WNW,292,3.0,6.0,76,0.00,,---,0.00,0.00,VWS V14.01,2014-02-22 14:30:00,
2014-02-22 10:00:00,32.1,25.4,29.88,WNW,292,0.0,3.0,76,0.00,,---,0.00,0.00,VWS V14.01,2014-02-22 15:00:00,
2014-02-22 10:30:00,35.6,25.7,29.88,NNE,22,1.0,4.0,67,0.00,,---,0.00,0.00,VWS V14.01,2014-02-22 15:30:00,
2014-02-22 11:00:00,39.9,28.3,29.89,NNE,22,2.0,6.0,63,0.00,,---,0.00,0.00,VWS V14.01,2014-02-22 16:00:00,
2014-02-22 11:30:00,44.8,29.2,29.88,NE,45,4.0,9.0,54,0.00,,---,0.00,0.00,VWS V14.01,2014-02-22 16:30:00,
2014-02-22 12:00:00,48.2,28.9,29.89,ENE,68,5.0,13.0,47,0.00,,---,0.00,0.00,VWS V14.01,2014-02-22 17:00:00,
2014-02-22 12:30:00,50.4,28.2,29.88,ENE,68,8.0,16.0,42,0.00,,---,0.00,0.00,VWS V14.01,2014-02-22 17:30:00,
2014-02-22 13:00:00,52.4,26.2,29.87,ENE,68,9.0,18.0,36,0.00,,---,0.00,0.00,VWS V14.01,2014-02-22 18:00:00,
2014-02-22 13:30:00,53.7,26.0,29.86,ENE,68,8.0,17.0,34,0.00,,---,0.00,0.00,VWS V14.01,2014-02-22 18:30:00,
2014-02-22 14:00:00,54.1,25.6,29.85,ENE,68,8.0,16.0,33,0.00,,---,0.00,0.00,VWS V14.01,2014-02-22 19:00:00,
2014-02-22 14:30:00,54.5,25.3,29.84,ENE,68,7.0,18.0,32,0.00,,---,0.00,0.00,VWS V14.01,2014-02-22 19:30:00,
2014-02-22 15:00:00,54.8,27.0,29.84,ENE,68,8.0,18.0,34,0.00,,---,0.00,0.00,VWS V14.01,2014-02-22 20:00:00,
2014-02-22 15:30:00,54.9,27.1,29.84,ENE,68,8.0,16.0,34,0.00,,---,0.00,0.00,VWS V14.01,2014-02-22 20:30:00,
2014-02-22 16:00:00,54.1,27.8,29.84,NE,45,9.0,17.0,36,0.00,,---,0.00,0.00,VWS V14.01,2014-02-22 21:00:00,
2014-02-22 16:30:00,53.8,29.4,29.85,ENE,68,8.0,17.0,39,0.00,,---,0.00,0.00,VWS V14.01,2014-02-22 21:30:00,
2014-02-22 17:00:00,53.2,28.9,29.85,ENE,68,10.0,19.0,39,0.00,,---,0.00,0.00,VWS V14.01,2014-02-22 22:00:00,
2014-02-22 17:30:00,52.3,29.3,29.86,ENE,68,10.0,17.0,41,0.00,,---,0.00,0.00,VWS V14.01,2014-02-22 22:30:00,
2014-02-22 18:00:00,51.4,30.2,29.87,ENE,68,9.0,17.0,44,0.00,,---,0.00,0.00,VWS V14.01,2014-02-22 23:00:00,
2014-02-22 18:30:00,49.7,29.8,29.88,ENE,68,10.0,18.0,46,0.00,,---,0.00,0.00,VWS V14.01,2014-02-22 23:30:00,
2014-02-22 19:00:00,47.9,30.2,29.90,ENE,68,8.0,15.0,50,0.00,,---,0.00,0.00,VWS V14.01,2014-02-23 00:00:00,
2014-02-22 19:30:00,44.9,29.7,29.91,ENE,68,8.0,16.0,55,0.00,,---,0.00,0.00,VWS V14.01,2014-02-23 00:30:00,
2014-02-22 20:00:00,42.8,30.7,29.92,ENE,68,8.0,15.0,62,0.00,,---,0.00,0.00,VWS V14.01,2014-02-23 01:00:00,
2014-02-22 20:30:00,41.0,30.1,29.92,ENE,68,10.0,18.0,65,0.00,,---,0.00,0.00,VWS V14.01,2014-02-23 01:30:00,
2014-02-22 21:00:00,39.2,28.8,29.93,ENE,68,11.0,20.0,66,0.00,,---,0.00,0.00,VWS V14.01,2014-02-23 02:00:00,
2014-02-22 21:30:00,37.6,28.0,29.94,ENE,68,11.0,19.0,68,0.00,,---,0.00,0.00,VWS V14.01,2014-02-23 02:30:00,
2014-02-22 22:00:00,36.3,27.8,29.97,ENE,68,10.0,18.0,71,0.00,,---,0.00,0.00,VWS V14.01,2014-02-23 03:00:00,
2014-02-22 22:30:00,35.3,27.9,29.99,ENE,68,10.0,18.0,74,0.00,,---,0.00,0.00,VWS V14.01,2014-02-23 03:30:00,
2014-02-22 23:00:00,34.6,27.5,30.01,ENE,68,10.0,21.0,75,0.00,,---,0.00,0.00,VWS V14.01,2014-02-23 04:00:00,
2014-02-22 23:30:00,33.8,27.0,30.02,ENE,68,10.0,19.0,76,0.00,,---,0.00,0.00,VWS V14.01,2014-02-23 04:30:00,